Date,Time,Ammonium-nitrogen,Total oxidised nitrogen,Nitrate-nitrogen,Nitrite-nitrogen,Suspended solids,Soluble reactive phosphorus,Dissolved organic carbon,Total phosphorus
Date,Time,Ammonium-nitrogen,Total oxidised nitrogen,Nitrate-nitrogen,Nitrite-nitrogen,Suspended solids,Soluble reactive phosphorus,Dissolved organic carbon,Total phosphorus
Units: Year month day,Units: Hour minute second,Units: milligrams per litre,Units: milligrams per litre,Units: milligrams per litre,Units: milligrams per litre,Units: milligrams per litre,Units: milligrams per litre,Units: milligrams per litre,Units: milligrams per litre
2012-01-24,11:33:00,0.092,1.66,1.65,0.013,82.3,0.0108,9.99,0.167
2012-01-24,12:33:00,0.096,1.49,1.48,0.0117,24.6,0.0272,6,0.159
2012-01-24,13:33:00,0.096,1.46,1.45,0.0115,32.8,0.0313,6.14,0.132
2012-01-24,14:33:00,0.098,1.4,1.39,0.0121,26.9,0.0358,6.03,0.119
2012-01-24,15:33:00,0.088,1.54,1.53,0.0104,17.5,0.0399,6.12,0.118
2012-01-24,16:33:00,0.067,1.54,1.53,0.0109,16.5,0.0408,5.89,0.114
2012-01-24,17:33:00,0.055,1.61,1.6,0.011,13.6,0.0414,5.75,0.112
2012-01-24,18:33:00,0.049,1.56,1.55,0.0104,12.3,0.0413,5.67,0.1
2012-01-24,19:33:00,0.048,1.61,1.6,0.0102,10.9,0.0412,5.36,0.0954
2012-01-24,20:33:00,0.047,1.67,1.66,0.0086,8.97,0.0407,5.32,0.0865
2012-01-24,21:33:00,0.055,1.69,1.68,0.0094,9.12,0.0388,5.1,0.0806
2012-01-24,22:33:00,0.054,1.71,1.7,0.0096,7.57,0.0303,5.06,0.0829
2012-01-24,23:33:00,0.061,1.77,1.76,0.0122,6.72,0.0322,4.92,0.0837
2012-01-25,00:33:00,0.049,1.79,1.78,0.0099,7.57,0.0359,4.69,0.0789
2012-01-25,01:33:00,0.043,1.73,1.72,0.0097,7.7,0.0368,4.65,0.07
2012-01-25,02:33:00,0.036,1.78,1.77,0.0116,6.27,0.0292,4.53,0.0672
2012-01-25,03:33:00,0.035,1.77,1.76,0.011,5.62,0.0334,4.36,0.0744
2012-01-25,04:33:00,0.03,1.8,1.78,0.0157,5.92,0.0313,4.3,0.0699
2012-01-25,05:33:00,< .03,1.83,1.82,0.0113,5.53,0.0281,3.95,0.0645
2012-01-25,06:33:00,0.032,1.82,1.81,0.0124,4.15,0.0297,4.16,0.0603
2012-01-25,07:33:00,< .03,1.93,1.92,0.0115,4.28,0.0299,4.06,0.0614
2012-01-25,08:33:00,< .03,2.13,2.11,0.0166,4.23,0.0254,3.94,0.0571
2012-01-25,09:33:00,< .03,1.84,1.83,0.0117,4.88,0.0266,3.72,0.0511
2012-01-25,10:33:00,< .03,1.81,1.8,0.0073,4.68,0.0261,3.7,0.0519
2012-02-06,13:41:00,< .03,2.23,2.23,< .004,< 3,0.0119,40.2,0.0241
2012-02-06,14:41:00,< .03,2.3,2.3,< .004,3.07,0.0196,2.42,0.026
2012-02-06,15:41:00,< .03,2.31,2.31,< .004,< 3,0.0219,2.13,0.0271
2012-02-06,16:41:00,< .03,2.3,2.3,< .004,< 3,0.0217,2.09,0.0263
2012-02-06,17:41:00,< .03,2.32,2.32,< .004,< 3,0.0211,2.01,0.0243
2012-02-06,18:41:00,< .03,2.31,2.31,< .004,< 3,0.0205,1.99,0.0245
2012-02-06,19:41:00,< .03,2.3,2.3,< .004,< 3,0.0214,1.9,0.0256
2012-02-06,20:41:00,< .03,2.3,2.3,< .004,< 3,0.0213,1.91,0.0267
2012-02-06,21:41:00,< .03,2.3,2.3,< .004,< 3,0.0211,1.77,0.0236
2012-02-06,22:41:00,< .03,2.27,2.27,< .004,< 3,0.0214,1.87,0.0256
2012-02-06,23:41:00,< .03,2.28,2.28,< .004,< 3,0.0214,1.85,0.0265
2012-02-07,00:41:00,< .03,2.31,2.31,< .004,3.2,0.0231,1.9,0.0291
2012-02-07,01:41:00,< .03,2.31,2.31,< .004,3,0.022,1.81,0.0266
2012-02-07,02:41:00,< .03,2.3,2.3,< .004,< 3,0.0219,1.79,0.026
2012-02-07,03:41:00,< .03,2.24,2.24,< .004,< 3,0.0227,1.7,0.0275
2012-02-07,04:41:00,< .03,2.23,2.23,< .004,< 3,0.0216,1.73,0.0278
2012-02-07,05:41:00,< .03,2.25,2.25,< .004,< 3,0.0215,1.76,0.0257
2012-02-07,06:41:00,< .03,2.26,2.26,< .004,< 3,0.0218,1.85,0.0259
2012-02-07,07:41:00,< .03,2.27,2.27,< .004,< 3,0.0215,1.78,0.0246
2012-02-07,08:41:00,< .03,2.22,2.22,< .004,< 3,0.0244,1.77,0.0274
2012-02-07,09:41:00,< .03,2.21,2.2,0.0141,< 3,0.023,1.8,0.0291
2012-02-07,10:41:00,< .03,2.25,2.25,< .004,< 3,0.0228,1.95,0.0274
2012-02-07,11:41:00,< .03,2.29,2.29,< .004,< 3,0.0223,1.85,0.0271
2012-02-07,12:41:00,< .03,2.24,2.24,< .004,< 3,0.0235,1.94,0.0251
2012-06-22,08:48:00,0.077,1.42,0.615,0.805,189,0.0252,202,0.505
2012-06-22,09:48:00,0.685,3.02,2.95,0.0682,386,0.171,14.4,0.951
2012-06-22,10:48:00,0.583,2.52,2.48,0.0366,249,0.227,14.4,0.798
2012-06-22,11:48:00,0.462,2.22,2.19,0.0298,152,0.248,14.6,0.645
2012-06-22,12:48:00,0.417,2.11,2.08,0.0285,175,0.216,12.8,0.637
2012-06-22,13:48:00,0.397,1.96,1.93,0.0273,148,0.226,13.2,0.577
2012-06-22,14:48:00,0.317,1.74,1.72,0.023,114,0.222,13,0.517
2012-06-22,15:48:00,0.237,1.72,1.7,0.0199,80.1,0.208,12.1,0.487
2012-06-22,16:48:00,0.216,1.73,1.71,0.0187,63.5,0.19,12.2,0.42
2012-06-22,17:48:00,0.208,1.81,1.79,0.0182,53.8,0.175,11.1,0.369
2012-06-22,18:48:00,0.192,1.86,1.84,0.0189,51.7,0.165,12.8,0.358
2012-06-22,19:48:00,0.162,1.87,1.85,0.0178,45.4,0.148,11.9,0.328
2012-06-22,20:48:00,0.141,1.97,1.95,0.0169,40.6,0.132,10.7,0.308
2012-06-22,21:48:00,0.128,2.03,2.01,0.0163,33.7,0.12,10.1,0.287
2012-06-22,22:48:00,0.116,2.04,2.02,0.0157,32,0.114,10.1,0.284
2012-06-22,23:48:00,0.106,2.07,2.05,0.0151,25.5,0.1,9.62,0.227
2012-06-23,00:48:00,0.137,2.19,2.17,0.0163,24.5,0.0932,8.78,0.217
2012-06-23,01:48:00,0.182,2.16,2.14,0.0177,27.2,0.0933,10.4,0.22
2012-06-23,02:48:00,0.173,2.06,2.04,0.017,22.8,0.087,9.83,0.211
2012-06-23,03:48:00,0.157,1.99,1.97,0.0161,21,0.0834,10.4,0.216
2012-06-23,04:48:00,0.131,1.96,1.94,0.0152,21.7,0.081,10.7,0.204
2012-06-23,05:48:00,0.153,1.98,1.96,0.0153,24.7,0.086,9.77,0.211
2012-06-23,06:48:00,0.128,1.93,1.92,0.0143,17.8,0.08,10.4,0.198
2012-06-23,07:48:00,0.113,1.81,1.8,0.0137,19.1,0.0799,10.4,0.194
2012-08-17,13:33:00,1.3,0.47,0.086,0.384,61.3,0.0717,17.6,0.403
2012-08-17,14:33:00,0.437,1.27,1.24,0.0298,49.6,0.201,17.1,0.439
2012-08-17,15:33:00,0.416,1.29,1.26,0.0295,34.4,0.203,15.4,0.405
2012-08-17,16:33:00,0.423,1.4,1.37,0.0308,33.7,0.172,5.74,0.373
2012-08-17,17:33:00,0.384,1.38,1.35,0.0287,26.8,0.162,15.2,0.339
2012-08-17,18:33:00,0.351,1.37,1.34,0.0276,24,0.147,13.6,0.312
2012-08-17,19:33:00,0.302,1.3,1.28,0.0247,20.8,0.132,13.1,0.284
2012-08-17,20:33:00,0.275,1.3,1.28,0.0223,19.3,0.126,12.3,0.266
2012-08-17,21:33:00,0.248,1.37,1.35,0.0212,18.9,0.12,12,0.245
2012-08-17,22:33:00,0.292,1.3,1.28,0.0211,15.4,0.12,11.6,0.24
2012-08-17,23:33:00,0.236,1.42,1.4,0.0197,14.6,0.114,11.5,0.226
2012-08-18,00:33:00,0.198,1.31,1.29,0.0174,14.1,0.101,10.3,0.207
2012-08-18,01:33:00,0.182,1.46,1.44,0.0161,14.8,0.101,10.8,0.205
2012-08-18,02:33:00,0.162,1.43,1.41,0.0164,19.9,0.0946,10.3,0.199
2012-08-18,03:33:00,0.178,1.3,1.28,0.0179,20.9,0.101,10.3,0.208
2012-08-18,04:33:00,0.169,1.25,1.23,0.0182,23,0.0984,11.3,0.214
2012-08-18,05:33:00,0.131,1.22,1.21,0.0148,25,0.0931,12.3,0.236
2012-08-18,06:33:00,0.119,1.22,1.21,0.0131,30.4,0.094,12.3,0.241
2012-08-18,07:33:00,0.138,1.05,1.03,0.0155,45,0.103,13.6,0.289
2012-08-18,08:33:00,0.147,0.75,0.732,0.0177,95.7,0.158,17.4,0.44
2012-08-18,09:33:00,0.124,0.86,0.843,0.0168,116,0.133,16.1,0.431
2012-08-18,10:33:00,0.128,0.77,0.757,0.0132,66.9,0.157,16.4,0.406
2012-08-18,11:33:00,0.137,0.86,0.849,0.0115,47.7,0.16,16.9,0.363
2012-08-18,12:33:00,0.105,0.89,0.88,0.0101,36.2,0.133,15.4,0.329
2012-08-25,19:12:00,0.72,< .2,< .196,< .004,31.6,0.0168,16.8,0.22
2012-08-25,20:12:00,0.296,1.02,0.995,0.0248,32.3,0.128,12.5,0.303
2012-08-25,21:12:00,0.255,0.99,0.967,0.023,36.5,0.129,12.5,0.321
2012-08-25,22:12:00,0.235,0.92,0.899,0.0207,29.3,0.125,13.4,0.287
2012-08-25,23:12:00,0.199,0.92,0.902,0.0183,22.5,0.119,13.2,0.264
2012-08-26,00:12:00,0.193,0.95,0.932,0.0177,24.6,0.116,11.5,0.26
2012-08-26,01:12:00,0.182,0.98,0.963,0.0173,21.7,0.111,11.9,0.24
2012-08-26,02:12:00,0.152,0.95,0.935,0.0151,17.7,0.109,11.2,0.221
2012-08-26,03:12:00,0.141,0.99,0.975,0.015,15.3,0.0911,11.2,0.209
2012-08-26,04:12:00,0.144,1.04,1.02,0.0175,14.9,0.0857,10.5,0.191
2012-08-26,05:12:00,0.125,1.05,1.04,0.0148,18.1,0.0819,9.84,0.187
2012-08-26,06:12:00,0.122,1.06,1.05,0.0146,17.8,0.0842,10,0.192
2012-08-26,07:12:00,0.069,1.16,1.15,0.0102,11.4,0.0734,9.07,0.156
2012-08-26,08:12:00,0.067,1.18,1.17,0.0081,6.23,0.0704,8.26,0.144
2012-08-26,09:12:00,0.076,1.17,1.16,0.0098,8.88,0.0699,8.34,0.152
2012-08-26,10:12:00,0.083,1.31,1.3,0.01,8.83,0.0681,7.76,0.14
2012-08-26,11:12:00,0.048,1.15,1.14,0.0088,7.63,0.0603,7.54,0.116
2012-08-26,12:12:00,0.051,1.22,1.21,0.0071,7.48,0.0623,7.13,0.114
2012-08-26,13:12:00,0.056,1.22,1.21,0.0066,6.28,0.0559,6.79,0.116
2012-08-26,14:12:00,0.037,1.14,1.13,0.0071,6.43,0.058,7.36,0.113
2012-08-26,15:12:00,0.05,1.18,1.17,0.007,7.18,0.0549,6.89,0.105
2012-08-26,16:12:00,0.035,1.22,1.22,0.0048,7.48,0.048,6.65,0.0944
2012-08-26,17:12:00,0.033,1.17,1.16,0.0072,5.18,0.046,6.29,0.0908
2012-08-26,18:12:00,0.037,1.21,1.2,0.0096,6.63,0.0531,6.29,0.0985
2013-01-28,17:30:00,0.543,0.59,0.585,0.0049,185,0.117,30.1,
2013-01-28,18:30:00,0.112,0.76,0.754,0.0056,75.7,0.175,6.99,0.406
2013-01-28,19:30:00,0.109,0.79,0.784,0.0057,29.2,0.167,6.7,0.37
2013-01-28,20:30:00,0.105,0.87,0.864,0.0061,49.6,0.164,6.44,0.336
2013-01-28,21:30:00,0.159,0.94,0.933,0.0069,40.7,0.149,5.7,0.298
2013-01-28,22:30:00,0.082,1.1,1.09,0.0073,30.6,0.142,5.89,0.271
2013-01-28,23:30:00,0.146,1.1,1.09,0.0075,27.6,0.137,5.38,0.264
2013-01-29,00:30:00,0.134,1.2,1.19,0.0073,24.1,0.13,5.46,0.248
2013-01-29,01:30:00,0.129,1.2,1.19,0.0073,20.7,0.13,5.55,0.229
2013-01-29,02:30:00,0.085,1.18,1.17,0.0068,22,0.119,5.34,0.215
2013-01-29,03:30:00,0.112,1.22,1.21,0.0068,22,0.109,5.13,0.204
2013-01-29,04:30:00,0.122,1.3,1.29,0.0072,20,0.106,5,0.187
2013-01-29,05:30:00,0.087,1.3,1.29,0.0066,19.2,0.0984,4.7,0.18
2013-01-29,06:30:00,0.072,1.35,1.34,0.0062,16.4,0.0921,4.64,0.169
2013-01-29,07:30:00,0.064,1.41,1.4,0.006,11.4,0.0857,4.42,0.162
2013-01-29,08:30:00,0.052,1.45,1.44,0.0056,12.9,0.082,4.33,0.142
2013-01-29,09:30:00,< .03,1.5,1.5,0.0049,12.5,0.0804,4.16,0.142
2013-01-29,10:30:00,0.04,1.52,1.51,0.0051,12.6,0.0756,3.98,0.134
2013-01-29,11:30:00,0.037,1.58,1.58,0.0048,9.97,0.0731,3.9,0.128
2013-01-29,12:30:00,0.043,1.6,1.6,0.0046,9.87,0.0687,3.75,0.113
2013-01-29,13:30:00,0.039,1.52,1.52,0.0041,10.4,0.0653,3.69,0.122
2013-08-05,14:35:00,0.733,1.76,1.67,0.086,179,0.0328,31.4,0.706
2013-08-05,15:35:00,0.245,2.39,2.36,0.0291,31.7,0.212,14.3,0.589
2013-08-05,16:35:00,0.162,2.46,2.43,0.0266,52.1,0.177,14.8,0.464
2013-08-05,17:35:00,0.158,2.29,2.27,0.0248,82.2,0.175,14.1,0.415
2013-08-05,20:35:00,0.089,2.17,2.15,0.0184,51,0.121,13.5,0.3
2013-08-05,23:35:00,0.05,2.18,2.17,0.0138,32.4,0.0887,11.6,0.229
2013-08-06,02:35:00,< .03,2.19,2.18,0.0108,25,0.0756,9.27,0.175
2013-08-06,05:35:00,< .03,2.15,2.14,0.0103,17.8,0.0663,8.35,0.142
2013-08-06,08:35:00,< .03,2.09,2.08,0.0086,14.3,0.0576,7.41,0.127
2013-08-06,11:35:00,< .03,1.98,1.97,0.007,4.93,0.0524,6.91,0.116
2013-10-16,15:39:00,0.329,1.78,1.77,0.0128,21.4,0.0115,30.9,0.1
2013-10-16,16:39:00,< .03,1.58,1.58,< .004,18.1,0.00803,3.75,0.0731
2013-10-16,17:39:00,< .03,1.62,1.62,< .004,17.6,0.0356,3.62,0.0963
2013-10-16,18:39:00,0.089,1.63,1.61,0.0178,112,0.0652,4.92,0.332
2013-10-16,19:39:00,0.09,1.84,1.81,0.0269,96.3,0.13,10.6,0.537
2013-10-16,20:39:00,0.05,1.57,1.55,0.0185,123,0.142,7.96,0.458
2013-10-16,21:39:00,0.142,2.19,2.16,0.0286,67.4,0.159,11.8,0.466
2013-10-16,23:39:00,0.094,2.39,2.36,0.0289,50.9,0.162,11.1,0.418
2013-10-17,01:39:00,0.084,2.76,2.73,0.0299,28.1,0.135,10.9,0.331
2013-10-17,04:39:00,< .03,2.78,2.75,0.0252,24.8,0.108,10.1,0.269
2013-10-17,07:39:00,< .03,2.72,2.71,0.0143,9.95,0.0862,8.81,0.218
2013-10-19,14:40:00,0.282,1.44,1.43,0.0114,8.92,0.0119,7.17,0.0985
2013-10-19,16:40:00,0.04,1.57,1.57,0.0045,5.97,0.045,6.56,0.108
2013-10-19,17:40:00,0.037,1.58,1.58,0.0044,18.2,0.0539,6.49,0.138
2013-10-19,18:40:00,0.031,1.6,1.6,< .004,54.1,0.0537,6.47,0.195
2013-10-19,19:40:00,0.085,1.43,1.41,0.0204,103,0.12,8.32,0.399
2013-10-19,20:40:00,0.064,1.56,1.54,0.0192,72.5,0.141,10.1,0.384
2013-10-19,21:40:00,0.079,1.69,1.67,0.0195,58.5,0.137,10.5,0.354
2013-10-19,22:40:00,0.046,1.84,1.82,0.0151,37.8,0.119,10.2,0.284
2013-10-20,01:40:00,0.064,1.6,1.6,0.005,9.08,0.0436,6.47,0.11
2013-10-20,03:40:00,< .03,2.14,2.13,0.0063,13.8,0.0695,7.84,0.158
2013-10-20,08:40:00,< .03,2.23,2.22,0.0071,10.5,0.0582,6.57,0.129
2013-10-20,13:40:00,< .03,2.21,2.2,0.0059,11.9,0.0566,6.13,0.127
2013-12-14,23:00:00,0.129,2.1,2.09,0.012,94.8,0.0207,23,0.366
2013-12-15,01:00:00,0.05,2.5,2.49,0.0126,69.5,0.141,6.23,0.323
2013-12-15,03:00:00,0.046,2.76,2.75,0.0126,44.4,0.132,5.31,0.258
2013-12-15,05:00:00,0.039,2.96,2.95,0.0116,36.8,0.113,4.88,0.219
2013-12-15,07:00:00,0.032,3.04,3.03,0.011,25,0.0938,4.58,0.178
2013-12-15,09:00:00,0.037,3.07,3.06,0.0103,24.5,0.0822,4.33,0.154
2013-12-15,11:00:00,0.043,3.05,3.04,0.0102,19.7,0.0708,4.06,0.138
2013-12-15,13:00:00,0.037,3,2.99,0.008,19.2,0.0644,3.9,0.12
2013-12-15,15:00:00,< .03,2.84,2.83,0.0078,16.9,0.0558,3.63,0.101
2013-12-15,17:00:00,< .03,2.87,2.86,0.0075,11.5,0.0511,3.58,0.0936
2013-12-15,19:00:00,< .03,2.94,2.93,0.007,11.8,0.0482,3.43,0.0814
2013-12-15,21:00:00,< .03,2.67,2.66,0.0091,10.9,0.0444,3.45,0.0775
2014-01-08,00:05:00,0.09,1.23,1.22,0.0082,19.1,0.0322,10.8,0.102
2014-01-08,02:05:00,0.055,1.54,1.53,0.0117,14.8,0.051,3.57,0.0927
2014-01-08,04:05:00,< .03,1.68,1.67,0.007,19.3,0.0467,3.28,0.0943
2014-01-08,06:05:00,< .03,1.76,1.75,0.0066,17.5,0.0492,3.13,0.0909
2014-01-08,08:05:00,0.035,1.69,1.68,0.0075,16.9,0.0494,3.2,0.0825
2014-01-08,10:05:00,0.037,1.69,1.68,0.0064,12.3,0.0464,3.23,0.0816
2014-01-08,12:05:00,< .03,1.81,1.8,0.0054,11.6,0.043,2.93,0.0692
2014-01-08,14:05:00,< .03,1.81,1.8,0.0054,10.3,0.0413,2.76,0.0654
2014-01-08,16:05:00,< .03,1.96,1.95,0.0052,9.28,0.0394,2.75,0.0618
2014-01-08,18:05:00,< .03,1.94,1.94,0.0048,8.33,0.0398,2.7,0.0582
2014-01-08,20:05:00,< .03,2,2,0.0043,8.2,0.0375,2.56,0.0572
2014-01-08,22:05:00,< .03,1.98,1.97,0.0054,8.68,0.0345,2.52,0.0604
2014-01-10,10:00:00,< .03,2.09,2.09,< .004,13.1,0.0039,3.1,0.0501
2014-01-10,11:00:00,< .03,2.12,2.12,< .004,8.62,0.0249,2.41,0.0529
2014-01-10,12:00:00,< .03,2.14,2.14,< .004,10.2,0.0266,2.29,0.0528
2014-01-10,13:00:00,< .03,2.13,2.12,0.0053,3.72,0.0313,2.31,0.0468
2014-01-10,14:00:00,< .03,2.15,2.14,0.0053,5.3,0.0291,2.27,0.0466
2014-01-10,15:00:00,< .03,2.14,2.13,0.0054,4.1,0.0283,2.3,0.0432
2014-01-10,16:00:00,< .03,2.13,2.12,0.0054,3,0.0282,2.23,0.0438
2014-01-10,17:00:00,< .03,2.22,2.21,0.0053,6.07,0.028,2.17,0.048
2014-01-10,18:00:00,< .03,2.16,2.15,0.0053,3.62,0.0284,2.13,0.0383
2014-01-10,19:00:00,< .03,2.24,2.23,0.0053,5.82,0.0292,2.21,0.0441
2014-01-10,20:00:00,< .03,2.16,2.15,0.0058,4.4,0.0339,2.27,0.0533
2014-01-10,21:00:00,< .03,2.18,2.17,0.0064,7.12,0.0313,2.34,0.0484
2014-02-01,21:30:00,0.115,0.54,0.534,0.006,137,0.0828,10.3,0.38
2014-02-01,22:30:00,0.118,0.71,0.704,0.0064,102,0.128,3.87,0.345
2014-02-01,23:30:00,0.089,0.84,0.833,0.0066,81,0.125,3.51,0.287
2014-02-02,00:30:00,0.095,0.98,0.973,0.0069,60.3,0.119,3.28,0.259
2014-02-02,01:30:00,0.086,1.09,1.08,0.0071,54.8,0.111,3.24,0.233
2014-02-02,02:30:00,0.085,1.13,1.12,0.0072,50.7,0.107,3.26,0.206
2014-02-02,03:30:00,0.102,1.19,1.18,0.0071,42.2,0.098,3.23,0.192
2014-02-02,04:30:00,0.098,1.33,1.32,0.0073,39.6,0.0901,3.13,0.174
2014-02-02,05:30:00,0.072,1.45,1.44,0.0073,35.5,0.0814,3.04,0.155
2014-02-02,06:30:00,0.061,1.51,1.5,0.0071,29,0.0758,2.88,0.136
2014-02-02,07:30:00,0.051,1.61,1.6,0.0068,23.1,0.0676,2.87,0.12
2014-02-02,08:30:00,0.05,1.66,1.65,0.0066,17.1,0.0634,2.76,0.109
2014-02-05,04:11:00,< .03,1.84,1.83,0.0068,6.73,0.0107,3.52,0.0361
2014-02-05,06:11:00,< .03,1.9,1.89,0.0055,5.58,0.02,2.34,0.0401
2014-02-05,08:11:00,< .03,1.88,1.87,0.0054,6.38,0.0206,2.26,0.0426
2014-02-05,10:11:00,0.037,1.9,1.89,0.0051,5.83,0.0209,2.27,0.0395
2014-02-05,12:11:00,< .03,1.89,1.89,0.0048,5.03,0.0222,2.27,0.0413
2014-02-05,14:11:00,< .03,1.84,1.83,0.0053,6.38,0.0294,2.23,0.0416
2014-02-05,16:11:00,0.035,1.94,1.93,0.006,6.18,0.0242,2.19,0.0423
2014-02-05,18:11:00,0.443,1.84,1.83,0.0118,,,3.31,0.128
2014-02-07,23:52:00,< .03,1.65,1.64,0.0085,9.8,0.00603,3.21,0.0625
2014-02-08,01:52:00,0.036,1.62,1.61,0.0065,85,0.0381,2.6,0.207
2014-02-08,03:52:00,0.095,0.68,0.673,0.0072,247,0.126,4.51,0.61
2014-02-08,05:52:00,0.081,0.71,0.703,0.0073,116,0.0955,4.45,0.374
2014-02-08,07:52:00,0.049,0.86,0.853,0.0069,65.8,0.0851,4.27,0.246
2014-02-08,09:52:00,0.066,1.07,1.06,0.0062,39.6,0.071,4,0.177
2014-02-08,11:52:00,0.038,1.28,1.27,0.0057,27.4,0.0556,3.6,0.131
2014-02-08,13:52:00,0.03,1.44,1.43,0.0052,23.4,0.0458,3.35,0.108
2014-02-08,15:52:00,0.033,1.51,1.5,0.0054,22.8,0.0501,3.26,0.119
2014-02-08,17:52:00,0.148,0.91,0.903,0.0072,140,0.104,4.7,0.421
2014-02-08,19:52:00,0.199,0.67,0.663,0.0074,118,0.133,5.29,0.431
2014-02-08,21:52:00,0.205,0.54,0.532,0.0076,180,0.162,4.94,0.504
2014-02-23,06:04:00,0.131,0.87,0.861,0.0095,45.2,0.0169,7.18,0.179
2014-02-23,07:04:00,0.101,0.87,0.862,0.0084,37.2,0.0475,4.67,0.159
2014-02-23,08:04:00,0.085,1,0.991,0.0091,25.8,0.0488,4.5,0.133
2014-02-23,09:04:00,0.065,1,0.992,0.0079,23.3,0.0477,4.2,0.118
2014-02-23,10:04:00,0.033,1.01,1,0.0089,33.2,0.0562,4.19,0.148
2014-02-23,11:04:00,0.07,0.78,0.771,0.0095,198,0.0934,4.9,0.476
2014-02-23,12:04:00,0.044,0.38,0.372,0.008,479,0.117,4.54,0.879
2014-02-23,13:04:00,0.055,0.47,0.462,0.0082,382,0.111,4.74,0.696
2014-02-23,14:04:00,0.035,0.39,0.382,0.008,423,0.115,4.21,0.825
2014-02-23,15:04:00,0.031,0.51,0.502,0.0079,213,0.105,4.09,0.467
2014-02-23,16:04:00,0.035,0.64,0.633,0.0075,129,0.0962,3.9,0.325
2014-02-23,17:04:00,0.032,0.64,0.633,0.0071,110,0.0916,3.99,0.266
2014-02-23,18:04:00,0.038,0.78,0.771,0.0088,88.4,0.0846,3.89,0.24
2014-02-23,19:04:00,0.03,0.86,0.853,0.007,107,0.0801,3.82,0.223
2014-02-23,20:04:00,0.041,0.91,0.902,0.0085,71.8,0.0767,3.9,0.211
2014-02-23,21:04:00,0.033,0.96,0.953,0.0068,63.2,0.0764,3.86,0.197
2014-02-23,22:04:00,0.074,0.92,0.913,0.0067,54.3,0.0724,3.82,0.181
2014-02-23,23:04:00,0.066,1.02,1.01,0.0064,50.9,0.0698,3.64,0.17
2014-02-24,00:04:00,0.079,1.01,1,0.0078,53.4,0.0737,3.71,0.181
2014-02-24,01:04:00,0.052,0.85,0.843,0.0069,129,0.0849,4.01,0.332
2014-02-24,02:04:00,0.098,0.73,0.722,0.0076,73.4,0.0812,3.95,0.24
2014-02-24,03:04:00,0.038,0.83,0.823,0.007,71.9,0.0815,3.94,0.226
2014-02-24,04:04:00,0.041,0.73,0.724,0.0065,84.6,0.0873,3.97,0.25
2014-02-24,05:04:00,0.092,0.75,0.743,0.0073,75,0.082,3.88,0.22
2014-02-24,20:59:00,< .03,1.54,1.53,0.0059,17,0.0215,3.21,0.0768
2014-02-24,22:59:00,< .03,1.58,1.57,0.0057,13.2,0.0368,2.66,0.0762
2014-02-25,00:59:00,0.04,1.57,1.56,0.0063,21.2,0.0452,2.91,0.0992
2014-02-25,02:59:00,0.143,1.02,1.01,0.0084,52.2,0.0773,4.04,0.205
2014-02-25,04:59:00,0.116,0.93,0.923,0.0072,34.6,0.0735,4.21,0.169
2014-02-25,06:59:00,0.073,1.03,1.02,0.0067,21.8,0.0604,3.81,0.125
2014-02-25,08:59:00,0.048,1.19,1.18,0.0061,15,0.049,3.46,0.0964
2014-02-25,10:59:00,< .03,1.34,1.33,0.0053,11.7,0.0422,3.23,0.0823
2014-02-25,12:59:00,< .03,1.46,1.46,0.0048,11,0.0405,2.9,0.0764
2014-02-25,14:59:00,< .03,1.67,1.67,0.0048,12,0.0391,2.74,0.076
2014-02-25,16:59:00,< .03,1.56,1.56,0.005,10.6,0.0401,2.71,0.0723
